Weather History for New Haven, CT

Change the Weather History Date:

Friday, November 2, 2012

  Actual Average Record
Temperature  
Mean Temperature 50 °F -  
Max Temperature 55 °F 54 °F 77 °F (1974)
Min Temperature 46 °F 39 °F 32 °F (2002)
Degree Days  
Heating Degree Days 14    
Moisture  
Dew Point 36 °F    
Average Humidity 57    
Maximum Humidity 68    
Minimum Humidity 42    
Precipitation  
Precipitation 0.00 in - - ()
Sea Level Pressure  
Sea Level Pressure 29.61 in    
Wind  
Wind Speed 6 mph (WNW)    
Max Wind Speed 12 mph    
Max Gust Speed 20 mph    
Visibility 10 miles    
Events      
Averages and records for this station are not official NWS values.
T = Trace of Precipitation, MM = Missing Value Source: NWS Daily Summary

Daily Weather History Graph

Daily Weather History Graph

Search for Another Location

Airport:

Trip Planner

Search our weather history database for the weather conditions in past years. The results will help you decide how hot, cold, wet, or windy it might be!

Date:

Astronomy

Nov. 02, 2012 Rise Set
Actual Time 7:24 AM EDT 5:45 PM EDT
Civil Twilight 6:55 AM EDT 6:13 PM EDT
Nautical Twilight 6:23 AM EDT 6:46 PM EDT
Astronomical Twilight 5:50 AM EDT 7:18 PM EDT
Moon 8:28 PM EDT (11/2) 10:44 AM EDT (11/2)
Length of Visible Light 11h 18m
Length of Day
10h 20m
Waning Gibbous, 87% of the Moon is Illuminated
Nov 2
Waning Gibbous
Nov 6
Last Quarter
Nov 13
New
Nov 20
First Quarter
Nov 28
Full

Hourly Weather History & Observations

Time (EDT) Temp. Dew Point Humidity Pressure Visibility Wind Dir Wind Speed Gust Speed Precip Events Conditions
12:53 AM 51.1 °F 39.0 °F 63% 29.59 in 10.0 mi Variable 5.8 mph - N/A   Overcast
1:53 AM 50.0 °F 39.9 °F 68% 29.58 in 10.0 mi WSW 8.1 mph - N/A   Overcast
2:53 AM 50.0 °F 39.9 °F 68% 29.58 in 10.0 mi Variable 4.6 mph - N/A   Overcast
3:53 AM 50.0 °F 39.9 °F 68% 29.58 in 10.0 mi WSW 4.6 mph - N/A   Mostly Cloudy
4:53 AM 50.0 °F 39.9 °F 68% 29.58 in 10.0 mi West 4.6 mph - N/A   Overcast
5:53 AM 50.0 °F 39.9 °F 68% 29.58 in 10.0 mi Variable 5.8 mph - N/A   Scattered Clouds
6:53 AM 50.0 °F 39.0 °F 66% 29.59 in 10.0 mi West 5.8 mph - N/A   Mostly Cloudy
7:53 AM 50.0 °F 37.9 °F 63% 29.60 in 10.0 mi WNW 3.5 mph - N/A   Mostly Cloudy
8:53 AM 50.0 °F 37.9 °F 63% 29.61 in 10.0 mi WNW 5.8 mph - N/A   Overcast
9:53 AM 50.0 °F 37.9 °F 63% 29.62 in 10.0 mi WNW 4.6 mph - N/A   Overcast
10:53 AM 52.0 °F 37.9 °F 59% 29.61 in 10.0 mi WNW 5.8 mph - N/A   Overcast
11:53 AM 54.0 °F 37.0 °F 53% 29.60 in 10.0 mi WNW 6.9 mph - N/A   Mostly Cloudy
12:53 PM 55.0 °F 34.0 °F 45% 29.58 in 10.0 mi NW 5.8 mph - N/A   Mostly Cloudy
1:53 PM 55.0 °F 32.0 °F 42% 29.57 in 10.0 mi NW 11.5 mph - N/A   Mostly Cloudy
2:53 PM 54.0 °F 32.0 °F 43% 29.57 in 10.0 mi WNW 8.1 mph 19.6 mph N/A   Overcast
3:53 PM 54.0 °F 32.0 °F 43% 29.58 in 10.0 mi NW 10.4 mph 16.1 mph N/A   Overcast
4:53 PM 53.1 °F 32.0 °F 45% 29.60 in 10.0 mi NNW 5.8 mph - N/A   Overcast
5:53 PM 52.0 °F 33.1 °F 49% 29.62 in 10.0 mi WNW 8.1 mph 16.1 mph N/A   Overcast
6:53 PM 51.1 °F 34.0 °F 52% 29.65 in 10.0 mi NNW 6.9 mph - N/A   Overcast
7:53 PM 50.0 °F 35.1 °F 57% 29.66 in 10.0 mi NW 6.9 mph - N/A   Overcast
8:53 PM 48.9 °F 36.0 °F 61% 29.68 in 10.0 mi NW 8.1 mph 18.4 mph N/A   Overcast
9:53 PM 48.9 °F 34.0 °F 56% 29.69 in 10.0 mi NW 6.9 mph - N/A   Overcast
10:53 PM 46.9 °F 30.9 °F 54% 29.69 in 10.0 mi NW 9.2 mph 16.1 mph N/A   Partly Cloudy
11:53 PM 46.9 °F 32.0 °F 56% 29.70 in 10.0 mi WNW 6.9 mph - N/A   Partly Cloudy